KLUA Airport (Luray Caverns) Information

FAA: LUA - ICAO: KLUA

KLUA Airport Location

State Virginia
County Page
City Luray
KLUA Airport is 2 miles west of Luray, VA.
Latitude 38-40-00.1577N
Longitude 078-30-03.0061W
Elevation 902ft

KLUA Airport METARs

METAR KLUA 251555Z AUTO 22007KT 10SM CLR 23/12 A2986 RMK AO2
Altimeter 29.86"
Temperature 23.0°C (73.4°F)
Wind 220° at 7KT
Clouds Skies are clear.
Visibility 10.0mi
Time observed: 2021-10-25T15:55:00Z

KLUA Airport Details

Status Operational
Activation July 1971
Ownership Public
Usage Public
Chart WASHINGTON
ATC on-site No
Beacon schedule sunset-sunrise
Beacon color clear green

KLUA Airport Contacts

Owner LURAY & PAGE CO. AIRPORT AUTHORITY
Owner address 270 CIRCLE VIEW ROAD, LURAY, VA 22835
Owner phone (540) 743-6070
Manager RICK CANTLEY
Manager address 113 MAIN ST, HURT, VA 24563
Manager phone 434-324-7242

KLUA Airport (Luray Caverns) Radio Frequencies

KLUA (Airport) Radio Frequencies

UNICOM 122.8
Common traffic advisory frequency (CTAF) 122.8